Location: Les Coudrans
(46.1056°N, 1.1158°W)
Time: 01:37:01
(UTC+00:00)

Cosmos 1271 Rocket - Visible Passes

Search period start: 23 June 2021 00:00
Search period end: 03 July 2021 00:00
Orbit: 497 x 545 km, 81.2° (Epoch: 22 June)

Date Brightness Start Highest point End Pass type
(mag) Time Alt. Az. Time Alt. Az. Time Alt. Az.
23 Jun 5.0 01:35:38 10° NNE 01:38:34 21° ENE 01:41:29 10° ESE visible
23 Jun 3.7 03:11:18 10° NNW 03:14:32 28° W 03:17:48 10° SSW visible
24 Jun 5.1 01:22:22 10° NNE 01:25:07 19° ENE 01:27:52 10° ESE visible
24 Jun 3.5 02:57:47 10° NNW 03:01:10 32° W 03:04:03 13° SSW visible
25 Jun 5.2 01:09:08 10° NNE 01:11:40 17° ENE 01:14:12 10° ESE visible
25 Jun 3.3 02:44:18 10° NNW 02:47:47 36° W 02:50:17 17° SSW visible
26 Jun 5.3 00:55:55 10° NNE 00:58:12 15° ENE 01:00:30 10° ESE visible
26 Jun 3.2 02:30:50 10° NNW 02:34:24 42° W 02:36:34 21° SSW visible
27 Jun 5.4 00:42:46 10° NE 00:44:45 14° ENE 00:46:44 10° E visible
27 Jun 3.0 02:17:21 10° NNW 02:21:01 48° W 02:22:52 25° SSW visible
28 Jun 5.4 00:29:41 10° NE 00:31:17 12° ENE 00:32:52 10° E visible
28 Jun 2.8 02:03:54 10° NNW 02:07:37 56° W 02:09:13 30° SSW visible
29 Jun 5.5 00:16:47 10° NE 00:17:48 11° ENE 00:18:50 10° E visible
29 Jun 2.7 01:50:28 10° NNW 01:54:13 65° W 01:55:36 36° SSW visible
30 Jun 2.6 01:37:02 10° NNW 01:40:48 75° W 01:41:59 42° S visible
01 Jul 2.6 01:23:35 10° NNW 01:27:24 85° W 01:28:25 47° S visible
02 Jul 2.6 01:10:10 10° N 01:13:59 83° E 01:14:52 51° SSE visible
